This is the latest recevied weather packets stored in our database for station/object E25DQY-1. If no packets are shown the sender has not sent any weather packets the latest 10 day(s).
| Time | Temp. | Humidity | Pressure | Rain* | Wind** | Luminosity | Snow |
|---|---|---|---|---|---|---|---|
| 1788491940 | 39.44° C | 49% | 1006 hPa | - | - | 0 W/m² | - |
| 1788490118 | 38.33° C | 52% | 1007 hPa | - | - | 0 W/m² | - |
| 1788488295 | 36.67° C | 57% | 1007 hPa | - | - | 0 W/m² | - |
| 1788486473 | 35° C | 59% | 1007 hPa | - | - | 0 W/m² | - |
| 1788484650 | 34.44° C | 62% | 1006 hPa | - | - | 0 W/m² | - |
| 1788482828 | 33.33° C | 66% | 1006 hPa | - | - | 0 W/m² | - |
| 1788481006 | 31.11° C | 66% | 1005 hPa | - | - | 0 W/m² | - |
| 1788479183 | 30.56° C | 66% | 1005 hPa | - | - | 0 W/m² | - |
| 1788477361 | 30.56° C | 65% | 1005 hPa | - | - | 0 W/m² | - |
| 1788475539 | 30° C | 65% | 1004 hPa | - | - | 0 W/m² | - |
| 1788473717 | 30° C | 64% | 1004 hPa | - | - | 0 W/m² | - |
| 1788471895 | 30° C | 64% | 1004 hPa | - | - | 0 W/m² | - |
| 1788470073 | 30° C | 64% | 1004 hPa | - | - | 0 W/m² | - |
| 1788468251 | 30° C | 63% | 1004 hPa | - | - | 0 W/m² | - |
| 1788466429 | 30° C | 62% | 1004 hPa | - | - | 0 W/m² | - |
| 1788464581 | 29.44° C | 62% | 1004 hPa | - | - | 0 W/m² | - |
| 1788462759 | 29.44° C | 61% | 1004 hPa | - | - | 0 W/m² | - |
| 1788460937 | 28.89° C | 60% | 1005 hPa | - | - | 0 W/m² | - |
| 1788459114 | 28.33° C | 59% | 1004 hPa | - | - | 0 W/m² | - |
| 1788457292 | 27.78° C | 60% | 1005 hPa | - | - | 0 W/m² | - |
| 1788455470 | 26.67° C | 58% | 1005 hPa | - | - | 0 W/m² | - |
| 1788453649 | 22.78° C | 50% | 1005 hPa | - | - | 0 W/m² | - |
| 1788451826 | 21.67° C | 42% | 1006 hPa | - | - | 0 W/m² | - |
| 1788450004 | 22.22° C | 42% | 1006 hPa | - | - | 0 W/m² | - |
| 1788448182 | 22.78° C | 42% | 1006 hPa | - | - | 0 W/m² | - |
* Rain since midnight (hover to see other rain measurements)
** Current wind speed in m/s (hover to see current wind gust speed)